Вернуться в каталог

STARLINK-4600

АктивенСвязьVLEO
NORAD 53628·PAYLOAD·🇺🇸 United States

Запущен Aug 28, 2022 с Cape Canaveral Space Force Station

Loading…

Ближайшие Пролёты (ближайшие 24 часа)

TLE

СвежийSource: CelesTrak SupGP

Эпоха: Sep 15, 2026, 02:37 UTC

1 53628C 22104AS  26258.10951389 -.00004934  00000+0 -14117-3 0  2588
2 53628  53.1586  92.8166 0001260  83.3079  86.3240 15.35396983    11

Отслеживайте STARLINK-4600 в реальном времени с AllMySat

Download on the App Store